KD2FKI Weather Reports


time (UTC)temp
C
wind
direction
speed
KPH
gust
KPH
rain 1hr
cm
rain 24hr
cm
rain mn
cm
humidity
%
barometer
mb
20260504174044 26 0.0 0.0 0.00 0.00 0.00 36
20260504173033 25 0.0 0.0 0.00 0.00 0.00 36
20260504172042 26 0.0 0.0 0.00 0.00 0.00 36
20260504171049 25 0.0 0.0 0.00 0.00 0.00 37
20260504151034 20 0.0 0.0 0.00 0.00 0.00 40
20260504150140 20 0.0 0.0 0.00 0.00 0.00 41
20260504141045 18 0.0 0.0 0.00 0.00 0.00 43
20260504081037 8 0.0 0.0 0.00 0.00 0.00 72
20260504045032 5 0.0 0.0 0.00 0.00 0.00 75
20260504044042 5 0.0 0.0 0.00 0.00 0.00 75
20260504043049 5 0.0 0.0 0.00 0.00 0.00 76
20260504042036 6 0.0 0.0 0.00 0.00 0.00 75
20260504041104 6 0.0 0.0 0.00 0.00 0.00 74
20260504040035 6 0.0 0.0 0.00 0.00 0.00 73
20260504035044 6 0.0 0.0 0.00 0.00 0.00 70
20260504034031 6 0.0 0.0 0.00 0.00 0.00 68
20260504033041 6 0.0 0.0 0.00 0.00 0.00 69
20260504032030 6 0.0 0.0 0.00 0.00 0.00 69
20260504031040 7 0.0 0.0 0.00 0.00 0.00 68
20260504030046 7 0.0 0.0 0.00 0.00 0.00 69
20260504025036 7 0.0 0.0 0.00 0.00 0.00 64
20260504024044 7 0.0 0.0 0.00 0.00 0.00 61
20260504023034 8 0.0 0.0 0.00 0.00 0.00 60
20260504022042 8 0.0 0.0 0.00 0.00 0.00 59
20260504021032 8 0.0 0.0 0.00 0.00 0.00 56
20260504020038 9 0.0 0.0 0.00 0.00 0.00 56
20260504015045 10 0.0 0.0 0.00 0.00 0.00 53
20260504014037 10 0.0 0.0 0.00 0.00 0.00 52
20260504013043 11 0.0 0.0 0.00 0.00 0.00 50
20260504012034 11 0.0 0.0 0.00 0.00 0.00 47
20260504011041 12 0.0 0.0 0.00 0.00 0.00 43
20260504010032 13 0.0 0.0 0.00 0.00 0.00 41
20260504005038 13 0.0 0.0 0.00 0.00 0.00 39
20260504004046 14 0.0 0.0 0.00 0.00 0.00 37
20260504003036 15 0.0 0.0 0.00 0.00 0.00 37
20260504002043 15 0.0 0.0 0.00 0.00 0.00 37
20260504001035 15 0.0 0.0 0.00 0.00 0.00 36
20260504000041 15 0.0 0.0 0.00 0.00 0.00 35
20260503235031 16 0.0 0.0 0.00 0.00 0.00 34
20260503234057 16 0.0 0.0 0.00 0.00 0.00 33
20260503233046 17 0.0 0.0 0.00 0.00 0.00 32
20260503232036 18 0.0 0.0 0.00 0.00 0.00 30
20260503231044 18 0.0 0.0 0.00 0.00 0.00 30
20260503230052 18 0.0 0.0 0.00 0.00 0.00 29
20260503225042 20 0.0 0.0 0.00 0.00 0.00 29
20260503224031 19 0.0 0.0 0.00 0.00 0.00 29
20260503223039 19 0.0 0.0 0.00 0.00 0.00 29
20260503222029 19 0.0 0.0 0.00 0.00 0.00 30
20260503221038 20 0.0 0.0 0.00 0.00 0.00 29
20260503220045 20 0.0 0.0 0.00 0.00 0.00 28
20260503215034 20 0.0 0.0 0.00 0.00 0.00 29
20260503214042 20 0.0 0.0 0.00 0.00 0.00 28
20260503213032 20 0.0 0.0 0.00 0.00 0.00 27
20260503212039 18 0.0 0.0 0.00 0.00 0.00 30
20260503211030 18 0.0 0.0 0.00 0.00 0.00 30
20260503210041 18 0.0 0.0 0.00 0.00 0.00 31
20260503205048 18 0.0 0.0 0.00 0.00 0.00 30
20260503204039 18 0.0 0.0 0.00 0.00 0.00 31
20260503203043 18 0.0 0.0 0.00 0.00 0.00 31
20260503202032 18 0.0 0.0 0.00 0.00 0.00 31
20260503201040 18 0.0 0.0 0.00 0.00 0.00 32
20260503200030 17 0.0 0.0 0.00 0.00 0.00 32
20260503195041 18 0.0 0.0 0.00 0.00 0.00 32
20260503194047 17 0.0 0.0 0.00 0.00 0.00 33
20260503193035 17 0.0 0.0 0.00 0.00 0.00 33
20260503192044 17 0.0 0.0 0.00 0.00 0.00 33
20260503191033 17 0.0 0.0 0.00 0.00 0.00 35
20260503190043 16 0.0 0.0 0.00 0.00 0.00 35
20260503185034 17 0.0 0.0 0.00 0.00 0.00 35
20260503184039 17 0.0 0.0 0.00 0.00 0.00 35
20260503183047 17 0.0 0.0 0.00 0.00 0.00 36
20260503182038 16 0.0 0.0 0.00 0.00 0.00 37
20260503181044 17 0.0 0.0 0.00 0.00 0.00 35
20260503180035 16 0.0 0.0 0.00 0.00 0.00 38
20260503175042 15 0.0 0.0 0.00 0.00 0.00 38